Regional Weather Roundup
Issued by NWS

Home | Current Version | Previous Version | Graphics & Text | Print | Product List | Glossary On
Versions: 1 2 3 4 5 6 7 8 9 10 11 12 13 14 15 16 17 18 19 20 21 22 23 24 25 26 27 28 29 30 31 32 33 34 35 36 37 38 39 40 41 42 43 44 45 46 47 48 49 50
000
ASUS43 KLOT 280712
RWRIL

ILLINOIS REGIONAL WEATHER ROUNDUP
NATIONAL WEATHER SERVICE CHICAGO/ROMEOVILLE IL
200 AM CDT THU MAY 28 2015

NOTE: "FAIR" INDICATES FEW OR NO CLOUDS BELOW 12,000 FEET WITH NO
SIGNIFICANT WEATHER AND/OR OBSTRUCTIONS TO VISIBILITY.

* THESE STATIONS ARE NOT UNDER NWS QUALITY CONTROL. THEY ALSO MAY NOT
  REPORT WEATHER SUCH AS PRECIPITATION OR FOG.

ILZ001-002-007-009-015-016-024-280800-
NORTHWEST ILLINOIS

CITY           SKY/WX    TMP DP  RH WIND       PRES   REMARKS
MOLINE         CLEAR     60  55  83 CALM      30.14S
STERLING*      CLEAR     57  55  94 CALM      30.16S
SAVANNA*       CLEAR     60  57  90 SE3       30.15R
$$

ILZ003-004-008-010-011-017-018-280800-
NORTH CENTRAL ILLINOIS

CITY           SKY/WX    TMP DP  RH WIND       PRES   REMARKS
ROCKFORD       CLEAR     60  55  83 S3        30.17R
FREEPORT*      CLEAR     63  56  79 S8        30.17R
ROCHELLE*      CLEAR     57  55  94 S3        30.17R
DE KALB*       CLEAR     56  53  88 SW6       30.18R
PERU*          CLEAR     62  57  85 CALM      30.17S
$$

ILZ005-006-012>014-019>023-280800-
NORTHEAST ILLINOIS

CITY           SKY/WX    TMP DP  RH WIND       PRES   REMARKS
CHICAGO-OHARE  PTCLDY    58  54  86 CALM      30.16R
CHICAGO-MIDWAY PTCLDY    63  56  78 CALM      30.16R
AURORA         CLEAR     57  53  86 CALM      30.17R
LANSING*       CLEAR     56  53  92 CALM      30.17S FOG
JOLIET*        FOG       57  57  99 CALM      30.18R VSB 1/2
WAUKEGAN       CLEAR     59  55  87 SW5       30.14R
DUPAGE AIRPORT CLEAR     57  54  89 CALM      30.16R
KANKAKEE*      CLEAR     56  55  94 CALM      30.17S
WHEELING       CLEAR     57  53  86 CALM      30.17R
MORRIS*        CLEAR     60  55  84 CALM      30.15R
ROMEOVILLE*    CLEAR     57  55  90 S5        30.17R
NORTHERLY ISL    N/A     63  54  72 SW7         N/A
$$

LMZ740>746-280800-
SOUTHERN LAKE MICHIGAN

STATION/POSITION SKY/WX   TEMP    WIND        PRES    VSBY  WAVE
                          AIR SEA DIR/SP/G                  HT/PER
                          (F)     (DEG/KT/KT) (MB)    (MI)  (FT/S)
SOUTHERN BUOY              43 38  210/  8/ 10 1021.3R         0
HARRISON CRIB              64     190/ 10/ 10   N/A
BURNHAM HARBOR             63     220/  4/  6   N/A
CALUMET HARBOR             62     200/  3/  5   N/A
BURNS HARBOR               60     180/  4/  4 1021.7R
MICHIGAN CITY              59     130/  6/  7   N/A
MICHIGAN CITY 6N           56 53  200/  2/  4   N/A           0
ST. JOSEPH                 56 55  160/  2/  2   N/A           0
$$

ILZ025>027-034>036-040-047-049-050-058-095>099-280800-
WEST-CENTRAL ILLINOIS

CITY           SKY/WX    TMP DP  RH WIND       PRES   REMARKS
QUINCY         CLEAR     65  55  70 SE5       30.15S
GALESBURG*     CLEAR     59  56  91 SE3       30.16S
MACOMB*        PTCLDY    59  58  96 CALM      30.18S
JACKSONVILLE*  CLEAR     62  58  89 CALM      30.16S
PITTSFIELD*    CLEAR     60  57  91 CALM      30.16S
$$

ILZ028>032-037-038-041>044-048-051>054-059>061-280800-
CENTRAL ILLINOIS

CITY           SKY/WX    TMP DP  RH WIND       PRES   REMARKS
PONTIAC        CLEAR     60  56  89 CALM      30.18R
BLOOMINGTON    PTCLDY    63  56  78 SE6       30.19R
DECATUR        CLEAR     57  55  93 N8        30.17R
PEORIA         PTCLDY    62  57  83 SW3       30.18R
LACON*         PTCLDY    57  55  94 CALM      30.16R
LINCOLN*       PTCLDY    59  56  89 CALM      30.15S
SPRINGFIELD    CLEAR     60  57  89 CALM      30.17R
TAYLORVILLE    CLEAR     57  55  94 CALM      30.16R
$$

ILZ033-039-045-046-055>057-062-063-280800-
EAST-CENTRAL ILLINOIS

CITY           SKY/WX    TMP DP  RH WIND       PRES   REMARKS
CHAMPAIGN      PTCLDY    59  53  80 NE7       30.17R
DANVILLE*      PTCLDY    57  55  91 CALM      30.16R
RANTOUL*       PTCLDY    62  55  76 CALM      30.18R
PARIS*         CLEAR     62  56  80 CALM      30.17S
$$

ILZ079-100>102-280800-
SOUTHWEST ILLINOIS

CITY           SKY/WX    TMP DP  RH WIND       PRES   REMARKS
ALTON          PTCLDY    60  60 100 CALM      30.16S
BELLEVILLE     PTCLDY    62  61  99 CALM      30.14S
CAHOKIA*       MOCLDY    62  59  90 CALM      30.14S
SPARTA*        MOCLDY    65  63  94 CALM      30.15S
$$

ILZ064>066-069>071-074>076-080>082-084>086-088>090-092>094-280800-
SOUTH-CENTRAL ILLINOIS

CITY           SKY/WX    TMP DP  RH WIND       PRES   REMARKS
CARBONDALE     CLOUDY    70  67  90 CALM      30.15S
CAIRO*         PTCLDY    69  68  96 S5        30.14F
EFFINGHAM*     PTCLDY    60  57  90 CALM      30.17S
MARION         MOCLDY    70  68  94 S3        30.15F
MT. VERNON     MOCLDY    64  61  88 SW3       30.16S
CENTRALIA*     PTCLDY    61  58  91 CALM      30.15F
SALEM*         PTCLDY    65  60  85 CALM      30.16R
METROPOLIS*    PTCLDY    67  67 100 CALM      30.15S
$$

ILZ067-068-072-073-078-083-087-091-280800-
SOUTHEAST ILLINOIS

CITY           SKY/WX    TMP DP  RH WIND       PRES   REMARKS
LAWRENCEVILLE  PTCLDY    64  62  93 CALM      30.15S
FLORA*         PTCLDY    64  62  90 CALM      30.15F
FAIRFIELD*     MOCLDY    68  67  96 CALM      30.14S
HARRISBURG*    MOCLDY    67  67 100 CALM      30.17S
ROBINSON*      PTCLDY    63  59  87 W3        30.16S
CARMI*         MOCLDY    64  61  88 CALM      30.15S
$$

ABBREVIATIONS USED IN REMARKS
   TC - TEMPERATURE IN CELSIUS
  WCI - WIND CHILL INDEX
   HX - HEAT INDEX
  VSB - VISIBILITY
$$




USA.gov is the U.S. government's official web portal to all federal, state and local government web resources and services.